Погода в Каунасе

Погода в Каунасе : погода сейчас, прогноз погоды и архив. Всё, что Вы хотите узнать о погоде в Каунасе!

Поиск расширенной информации на нашем сайте:

Другие новости

Новости СМИ2

Главная страница сайта

Новости сайта

02.10.2013

Напоминаем, что на нашем новом сайте вы можете получить высокодетализированные прогнозы погоды по пунктам России, СНГ и мира (включающие важные для авиации метеовеличины, такие как направление и скорость ветра, видимость, явления погоды, количество и форма облачности, нижняя и верхняя граница облачности), а также ознакомиться с разнообразными материалами по авиационной метеорологии и подборкой полезных ссылок на эту тему.

Сайт Метеоцентр.Азия посвящён разработке технологий оптимизации авиаметеорологического обслуживания, включая проектирование и перспективное создание нескольких автоматизированных авиаметеорологических систем:
- система выпуска высокодетальных прогностических карт явлений погоды для нижнего воздушного пространства по России и ближнему зарубежью;
- система верификации прогнозов TAF (выпускаемых синоптиками официальных АМСГ РФ и ближнего зарубежья) и AUTOTAF (выпускаемых сайтом Метеоцентр.Азия) - выявление ошибок, онлайн-сопоставление с фактической погодой METAR, автоматическое внесение коррективов в прогнозы при резком отклонении фактической погоды от прогноза, подсчёт оправдываемости прогнозов по элементам и в целом;
- система обработки, анализа и отображения авиаметеорологической информации для применения провайдерами метеорологической информации.

Рекомендуем: застройщик продает. квартиры в Новостройках от застройщика в Новосибирске. новостройки дешево

Погода в Каунасе - сегодня

Время (UTC), дата Ветер
(°,м/с) 
Видим.   Явления Облачность Т
(°С)
Тd
(°С)
f(%) Тe
(°С)
Pmin
(гПа)
dP
(гПа)
Po
(мм)
O2
(г/м3)
Тmin Tmax R s Состояние
почвы
18 18.01.17 210 (ЮЗ) 4-5{07}  9000 м  дымка  10/10 630 м 
[Sc]
-4.2 -6.5 84 -7  1037.2  -1.3  770  316    -3.6     
21 18.01.17 210 (ЮЗ) 5-7{09}  6000 м  дымка  10/10 420 м 
[Sc]
-3.1 -5.5 83 -7  1036.4  -0.7  770  314           
00 19.01.17 210 (ЮЗ) 6-9{09}  5000 м  дымка  10/10 400 м 
[Sc]
-3.1 -5.1 86 -7  1035.1  -1.3  769  314         
03 19.01.17 220 (ЮЗ) 4-7{10}  3000 м  слаб. снег  10/10 210 м 
[Frnb|Ns]
-3.2 -3.9 95 -6  1033.6  -1.5  768  313           
06 19.01.17 230 (ЮЗ) 5-8{09}  1600 м  слаб. снег  10/10 180 м 
[Frnb|Ns]
-2.5 -3.1 96 -6  1032.4  -1.2  767  312  -4.2    0.0  неравномерный
мокрый или
старый снег
100% 
09 19.01.17 230 (ЮЗ) 5-9{11}  7000 м  дымка{снег, морось} [диам. гололёда 0 мм]  10/10 210 м 
[St]
-2.4 -3.6 91 -6  1032.6  0.2  767  312           
12 19.01.17 220 (ЮЗ) 6-8{10}  3200 м  слаб. переохл. морось (гололёд){снег} [диам. гололёда 1 мм]  10/10 120 м 
[St]
-2.3 -2.9 96 -6  1030.7  -1.9  766  311      0.5   
15 19.01.17 220 (ЮЗ) 5-7{09}  2800 м  слаб. переохл. морось (гололёд) [диам. гололёда 1 мм]  10/10 120 м 
[St]
-1.8 -2.4 96 -5  1029.6  -1  765  311           
18 19.01.17 230 (ЮЗ) 5-9{11}  3500 м  слаб. переохл. морось (гололёд) [диам. гололёда 2 мм]  10/10 120 м 
[St]
-0.8 -1.4 96 -4  1028.6  -1  764  309    -0.8  0.8   
21 19.01.17 250 (З) 5-8{09}  3000 м  слаб. переохл. морось (гололёд)  10/10 100 м 
[St]
-0.4 -1 96 -3  1027.5  -1.1  763  308           
00 20.01.17 250 (З) 4-6{09}  2500 м  слаб. морось [диам. гололёда 0 мм]  10/10 100 м 
[St]
+0.1 -0.2 98 -2  1026.7  -0.7  763  307      0.0   
03 20.01.17 250 (З) 5-7{08}  3500 м  слаб. морось  10/10 100 м 
[St]
+0.3 +0 98 -3  1026.4  -0.3  762  307           
06 20.01.17 250 (З) 3-5{07}  0900 м  слаб. морось{туман}  ?/?  
+0.4 +0.1 98 -1  1026.5  0.1  763  307  -0.9    0.0  неравномерный
мокрый или
старый снег
100% 
09 20.01.17 250 (З) 4-5{06}  1900 м  слаб. морось{туман}  10/10 60 м 
[St]
+1.1 +0.8 98 -1  1026.9  0.4  763  306           
12 20.01.17 250 (З) 4-6{07}  3100 м  слаб. морось{туман}  10/10 100 м 
[St]
+1.6 +1.3 98 -1  1025.9  -1  762  305      0.4   
15 20.01.17 240 (ЮЗ) 5-7{07}  3300 м  слаб. морось  10/10 100 м 
[St]
+1.3 +1 98 -1  1024.5  -1.4  761  305           
18 20.01.17 250 (З) 5-8{09}  4700 м  дымка{морось}  10/10 120 м 
[St]
+1.5 +1 96 -1  1023.3  -1.2  760  304    +1.7  0.4   
21 20.01.17 280 (З) 5-7{11}  4000 м  дымка  10/10 100 м 
[St]
+1.7 +1.4 98 -1  1023.2  760  304           
00 21.01.17 290 (З) 4-6{09}  3600 м  дымка  10/10 60 м 
[St]
+2 +1.7 98 1023.3  0.1  760  304         
03 21.01.17 290 (З) 4-5{07}  1200 м  в посл. час туман  10/10 60 м 
[St]
+1.5 +1.5 100 -1  1023.9  0.5  761  305           
06 21.01.17 290 (З) 4-8{08}  1700 м  в посл. час туман  10/10 60 м 
[St]
+0.9 +0.9 100 -1  1024.9  761  306  +0.9      мокрый или
старый снег
50-90% 
09 21.01.17 270 (З) 4-5{08}  1100 м  в посл. час туман  10/10 30 м 
[St]
+0.6 +0.6 100 -2  1026.7  1.8  763  307           
12 21.01.17 300 (СЗ) 4-6{08}  14000 м  {туман}  10/10 60 м 
[St]
+1.2 +1.2 100 -1  1027.7  763  306         
15 21.01.17 290 (З) 3-5{07}  11000 м    10/10 60 м 
[St]
+0.7 +0.4 98 -1  1028.9  1.2  764  307           
18 21.01.17 280 (З) 3-5{05}  6000 м  дымка  10/10 60 м 
[St]
+0.5 +0.2 98 -1  1030.5  1.5  765  308         
Время (UTC), дата Ветер
(°,м/с) 
Видим.   Явления Облачность Т
(°С)
Тd
(°С)
f(%) Тe
(°С)
Pmin
(гПа)
dP
(гПа)
Po
(мм)
O2
(г/м3)
Тmin Tmax R s Состояние
почвы

Для получения пояснительной информации подведите курсор к названию столбца.

ПОГОДА в Каунасе - архив

Всё, что Вы хотите узнать о погоде в Каунасе - удобно и подробно!

Выберите нужную дату (начиная с 1 января 2015* года) и нажмите кнопку "Найти".
Будут отображены архивные сводки погоды по пункту Каунас, начиная с указанной даты.


Отображать данные в формате CSV (для использования в таблицах Excel)


Внимание! Наш архив погоды предназначен исключительно для личного некоммерческого использования в познавательных целях. Если Вам необходимы официальные справки о состоянии погоды (для производственных, юридических, коммерческих и т.п. целей), обращайтесь в органы Росгидромета.

*Примечание: данная дата относится к архиву по метеостанциям СССР (Россия, СНГ, Балтия).
Архив по метеостанциям Зарубежной Европы и Азии (кроме Китая) хранится 10 дней, по другим регионам земного шара (Китай, Африка, Америка, Австралия, Океания) - 1 день.

Каунас - район местоположения метеостанции


Название, широта, долгота, высота метеостанции:
Каунас 54.9°ш. 23.8°д. 77 м над ур. моря [Литва]

Дополнительная информация

В oтличие oт бoльшинства пoгoдных сайтoв мы публикуем пoдрoбную метеoинфoрмацию в детальнoм прoфессиoнальнoм фoрмате.

Характеристики температуры и влажнoсти вoздуха измеряются на высoте 2 м в тени вдали oт зданий и деревьев.
Скoрoсть ветра измеряется на высoте 10 м (на урoвне рoста челoвека скoрoсть ветра ниже в 1.5-2 раза). Если метеoстанция нахoдится в гoрoде или в лесу, тo скoрoсть ветра занижена на 2-4 м/с пo сравнению с oткрытым местoм. Скoрoсть ветра над акватoриями крупных рек и oзёр, а также на вершинах хoлмoв на 2-5 м/с выше, чем в oбычных услoвиях.
Атмoсфернoе давление в разных тoчках местнoсти мoжет значительнo oтличаться oт давления на метеoстанции, в зависимoсти oт услoвий рельефа (при пoдъёме на 10 м давление пoнижается примернo на 1 мм рт.ст.).